[ hide orbit diagram ]
For accurate long-term ephemerides, please instead use our Horizons system.This orbit viewer was implemented using two-body methods, and hence should not be used for determining accurate long-term trajectories (over several years or decades) or planetary encounter circumstances.
Orbital Elements at Epoch 2459200.5 (2020-Dec-17.0) TDB
Reference: JPL 34 (heliocentric ecliptic J2000)
Element | Value | Uncertainty (1-sigma) | Units |
e | .1020498027054346 | 3.1729e-08 | |
a | 2.245084160844462 | 4.9523e-09 | au |
q | 2.015973765173188 | 7.029e-08 | au |
i | 5.25672778542785 | 3.7258e-06 | deg |
node | 17.49217868883853 | 3.1387e-05 | deg |
peri | 196.3017524206711 | 3.5485e-05 | deg |
M | 148.0935941708262 | 1.6835e-05 | deg |
tp | 2458695.046581199536 (2019-Jul-30.54658120) | 5.7163e-05 | TDB |
period | 1228.704264941211 3.36 | 4.0655e-06 1.113e-08 | d yr |
n | .2929915767951082 | 9.6945e-10 | deg/d |
Q | 2.474194556515735 | 5.4577e-09 | au |
|
| | Orbit Determination Parameters
Additional Information
|
[ show covariance matrix ]
Physical Parameter Table
Parameter |
Symbol |
Value |
Units |
Sigma |
Reference |
Notes |
absolute magnitude |
H |
12.69 |
|
n/a |
E2021B10 |
|
diameter |
diameter |
8.167 |
km |
0.154 |
urn:nasa:pds:neowise_diameters_albedos::2.0[mainbelt] (http://adsabs.harvard.edu/abs/2014ApJ...791..121M) |
|
rotation period |
rot_per |
9.6602 |
h |
n/a |
LCDB (Rev. 2020-October); Warner et al., 2009 |
Published Reference List: [Galad, A. (2009) Minor Planet Bull. 36, 183-186.] [Pravec, P.; Wolf, M.; Sarounova, L. (2009) http://www.asu.cas.cz/~ppravec/neo.htm] [Hanus, J.; Broz, M.; Durech, J.; Warner, B.D.; et al. (2013) Astron. Astrophys. 559, A134.] [Waszczak, A.; Chang, C.-K.; Ofeck, E.O.; Laher, F.; et al. (2015) Astron. J. 150, A75.] |
geometric albedo |
albedo |
0.241 |
|
0.046 |
urn:nasa:pds:neowise_diameters_albedos::2.0[mainbelt] (http://adsabs.harvard.edu/abs/2014ApJ...791..121M) |
|
|
1446 Sillanpaa (1938 BA) Discovered 1938-Jan-26 by Vaisala, Y. at Turku |
Reference: DISCOVERY.DB | Last Updated: 2003-08-29 |
|
[ show close-approach data ]
Alternate Designations
1938 BA = 1935 GB = 1952 HQ3 = 1955 DQ = 1965 EA |
|
|